Regional Weather Roundup
Issued by NWS

Home | Current Version | Previous Version | Text Only | Print | Product List | Glossary Off
Versions: 1 2 3 4 5 6 7 8 9 10 11 12 13 14 15 16 17 18 19 20 21 22 23 24 25 26 27 28 29 30 31 32 33 34 35 36 37 38 39 40 41 42 43 44 45 46 47 48 49 50

000
ASUS45 KTFX 260210
RWRMT
MONTANA REGIONAL WEATHER ROUNDUP
NATIONAL WEATHER SERVICE GREAT FALLS MT
800 PM MDT MON JUL 25 2016

NOTE: "FAIR" INDICATES FEW OR NO CLOUDS BELOW 12000 FEET WITH NO
SIGNIFICANT WEATHER AND/OR OBSTRUCTIONS TO VISIBILITY.

MTZ001>007-043-260300-
WEST OF THE DIVIDE

CITY           SKY/WX    TMP DP  RH WIND       PRES   REMARKS
KALISPELL      SUNNY     85  51  31 SE8       29.98F
MISSOULA       SUNNY     88  46  23 N8        30.00R
BUTTE          CLOUDY    75  45  34 SE12G20   30.18R
MULLAN PASS    SUNNY     70  40  33 VRB3      30.22S
ANACONDA         N/A     73  46  38 N3        30.13R
DEER LODGE       N/A     72  54  53 CALM      30.14S
EUREKA           N/A     91  45  19 CALM      29.95F
HAMILTON         N/A     88  32  13 W7        30.02S
LIBBY            N/A     91  43  18 CALM      29.96S
PLAINS           N/A     92  45  19 W1        29.96S
RONAN            N/A     87  48  25 N1        30.05S
THOMPSON FALLS   N/A     89  49  25 W3        29.99
$$

MTZ008-052>055-260300-
SOUTHWEST MONTANA

CITY           SKY/WX    TMP DP  RH WIND       PRES   REMARKS
BOZEMAN        PTCLDY    78  48  34 NW12      30.05R
DILLON         CLOUDY    77  46  33 NW10      30.09R
W YELLOWSTONE  CLEAR     81  23  12 W3        30.21R
ENNIS          CLEAR     79  41  25 N12G18    30.15R
THREE FORKS      N/A     84  84 100 N22       30.05R HX 103
TWIN BRIDGES     N/A     82  39  21 N15       30.08R
$$

MTZ009-010-012-014-046-048-049-054-260300-
EAST SLOPES AND CENTRAL MONTANA

CITY           SKY/WX    TMP DP  RH WIND       PRES   REMARKS
CUT BANK         N/A     80  49  33 NE9       30.08S
GREAT FALLS    CLEAR     85  44  23 N12       30.04R
MALMSTROM AFB  CLEAR     85  44  24 NE10      30.03R
HELENA         CLOUDY    73  51  46 SW10G18   30.08R
CHOTEAU          N/A     75  50  41 N8        30.09S
CONRAD           N/A     76  56  49 N2        30.09S
$$

MTZ011-013-016-021-045-047-050-051-260300-
NORTH CENTRAL MONTANA

CITY           SKY/WX    TMP DP  RH WIND       PRES   REMARKS
HAVRE          CLEAR     85  52  32 E10       29.97R
LEWISTOWN      CLOUDY    81  50  33 CALM      30.09R
N BAR RANCH      N/A     79  46  31 N8        30.11S
CHINOOK          N/A     84  57  39 NE13G20   29.96S
$$

MTZ017>020-022>027-061-062-260300-
NORTHEAST MONTANA

CITY           SKY/WX    TMP DP  RH WIND       PRES   REMARKS
GLASGOW        CLEAR     82  56  40 E9        29.95S
JORDAN           N/A     88  44  21 NE14      29.95S
SIDNEY         CLEAR     83  57  41 NE13      29.96S
WOLF POINT     CLEAR     88  52  29 E7        29.95S
PLENTYWOOD       N/A     82  61  47 E5        30.00R
POPLAR           N/A     82  57  42 E6        29.96S
SCOBEY           N/A     78  57  48 N5        30.01R
$$

MTZ028>42-056>058-260300-
SOUTHCENTRAL AND SOUTHEAST MONTANA

CITY           SKY/WX    TMP DP  RH WIND       PRES   REMARKS
BAKER          CLEAR     86  52  30 NE9       29.97R
BILLINGS       PTCLDY    89  37  16 NE14      29.96S
LIVINGSTON     CLOUDY    80  47  31 SE10      30.05R
MILES CITY     CLEAR     93  44  18 NE16      29.91S
EKALAKA          N/A     89  44  20 NE6       29.98R
FORSYTH          N/A     91  46  21 NE13      29.91S
LAUREL           N/A     88  39  17 N6        29.96
ROUNDUP          N/A     84  46  26 N7        29.93R
$$

REGIONAL REPORTS...DAKOTAS

CITY           SKY/WX    TMP DP  RH WIND       PRES   REMARKS
WILLISTON      CLEAR     85  57  38 NE7       29.98R
MINOT          CLEAR     81  69  67 N7        29.96R
DICKINSON      CLEAR     79  58  48 NE10      29.95R
BEACH            N/A     75  59  57 NE7       30.01R
CROSBY           N/A     77  68  73 SE5       30.00S
WATFORD CITY     N/A    N/A N/A N/A MISG        N/A
BISMARCK       CLEAR     82  70  66 E7        29.90S
GRAND FORKS    PTCLDY    84  69  60 E5        29.88F
FARGO          PTCLDY    84  64  50 S8        29.91S
BUFFALO SD       N/A     83  50  31 SE14G22   29.92R
RAPID CITY     CLOUDY    83  58  42 SE3       29.98S
$$

REGIONAL REPORTS...WYOMING/IDAHO/WASHINGTON

CITY           SKY/WX    TMP DP  RH WIND       PRES   REMARKS
GILLETTE       PTCLDY    87  35  15 SW9       30.03R
SHERIDAN       CLEAR     91  37  15 E5        29.97S
BUFFALO WY     CLEAR     89  33  13 NE3       30.07R
CODY           PTCLDY    88  34  14 S8        30.07R
YELLOWSTONE LA   N/A     74  18  12 VRB6G17   30.34R
IDAHO FALLS    CLEAR     89  32  13 S9        30.04S
SALMON         MOSUNNY   90  46  22 W5        29.97S
BOISE          SUNNY     98  28   8 NW9       29.90F HX  92
SPOKANE        MOSUNNY   91  42  18 NE7       29.96F
$$

REGIONAL REPORTS...ALBERTA

CITY           SKY/WX    TMP DP  RH WIND       PRES   REMARKS
EDMONTON       MOSUNNY   68  55  64 E6        30.01S
CALGARY        PTSUNNY   66  61  82 E12       30.09F
MEDICINE HAT   PTCLDY    79  57  47 NE10      30.01S
WATERTON GATE    N/A     75  54  46 E6          N/A
MILK RIVER       N/A     77  55  47 NE6         N/A
$$

REGIONAL REPORTS...SASKATCHEWAN

CITY           SKY/WX    TMP DP  RH WIND       PRES   REMARKS
SWIFT CURRENT  CLEAR     72  57  60 NE8       30.06S
SASKATOON      MOCLDY    70  52  52 NW7       30.05R
CYPRESS HILLS    N/A     70  55  60 NE6         N/A
VAL MARIE        N/A     75  59  57 NE12        N/A
ROCKGLEN         N/A    N/A N/A N/A N8          N/A
ASSINIBOIA       N/A     73  54  49 SE5         N/A
$$



USA.gov is the U.S. government's official web portal to all federal, state and local government web resources and services.